Find Starlink 31900

NORAD ID: 59942 Int'l Des: 2024-106 Owner: SPXS Country: US Constellation: starlink operational
LEOCIRCULAR

Live Position

Loading 3D Globe...

About Starlink 31900

Description loading...

Upcoming Passes

Passes for default location (London). Set your location on the main map for personalized predictions.

Altitude History

Loading altitude history...

Two-Line Element Set

1 59942U 24106W 26124.11835505 .00004193 00000-0 16186-3 0 9997
2 59942 43.0038 19.1714 0001220 270.4908 89.5804 15.27568334109005
Epoch: May 4, 2026 • Age: 22 hours

Current Status

Altitude 486.8 km
Velocity 7.63 km/s
Sub-Earth Point 42.21°N, 151.02°W
Launch Date Jun 1, 2024
Age 1.9 years
Type internet

Technical Details

Classification Payload
Mass 730.00 kg
Dry Mass 700.00 kg
Total Mass 730.00 kg
Length 0.30 m
Diameter 4.10 m
Span 29.00 m
Shape Box + pan
Manufacturer SPXS
Bus Type Starlink V2M
Phase Status In Orbit
Owner/State SPXS/US

Most Searched